Fredericksburg, TX

6:02 AM CDT on July 24, 2017 (GMT -0500)
Fredericksburg

Weather History for KT82 - August, 2013

Change the Weather History Date:

Saturday, August 3, 2013

  Actual Average (KSAT) Record (KSAT)
Temperature  
Mean Temperature 84 °F -  
Max Temperature 97 °F 93 °F 103 °F (1998)
Min Temperature 72 °F 74 °F 65 °F (1973)
Cooling Degree Days 20    
Growing Degree Days 34 (Base 50)    
Moisture  
Dew Point 62 °F    
Average Humidity 50    
Maximum Humidity 84    
Minimum Humidity 22    
Precipitation  
Precipitation 0.00 in - - ()
Sea Level Pressure  
Sea Level Pressure 30.02 in    
Wind  
Wind Speed 7 mph (South)    
Max Wind Speed 13 mph    
Max Gust Speed 20 mph    
Visibility 10 miles    
Events      
Averages and records for this station are not official NWS values.
T = Trace of Precipitation, MM = Missing Value Source: NWS Daily Summary

Daily Weather History Graph

Daily Weather History Graph

Search for Another Location

Airport or City:

Trip Planner

Search our weather history database for the weather conditions in past years. The results will help you decide how hot, cold, wet, or windy it might be!

Date:

Astronomy

Aug. 03, 2013 Rise Set
Actual Time 6:55 AM CDT 8:27 PM CDT
Civil Twilight 6:29 AM CDT 8:53 PM CDT
Nautical Twilight 5:58 AM CDT 9:24 PM CDT
Astronomical Twilight 5:26 AM CDT 9:56 PM CDT
Moon 4:09 AM CDT (8/3) 6:09 PM CDT (8/3)
Length of Visible Light 14h 23m
Length of Day
13h 31m
Waning Crescent, 9% of the Moon is Illuminated
Aug 3
Waning Crescent
Aug 6
New
Aug 14
First Quarter
Aug 20
Full
Aug 28
Last Quarter

Hourly Weather History & Observations

Time (CDT) Temp. Heat Index Dew Point Humidity Pressure Visibility Wind Dir Wind Speed Gust Speed Precip Events Conditions
12:15 AM 82.4 °F 83.4 °F 62.6 °F 51% 30.02 in 10.0 mi SSE 4.6 mph - N/A   Clear
12:35 AM 81.3 °F 82.5 °F 62.6 °F 53% 30.02 in 10.0 mi SSE 5.8 mph - N/A   Clear
12:55 AM 80.8 °F 82.0 °F 62.8 °F 54% 30.03 in 10.0 mi South 6.9 mph - N/A   Clear
1:15 AM 80.1 °F 81.4 °F 62.6 °F 55% 30.02 in 10.0 mi South 9.2 mph - N/A   Clear
1:35 AM 79.2 °F - 62.8 °F 57% 30.04 in 10.0 mi South 8.1 mph - N/A   Clear
1:55 AM 78.4 °F - 63.5 °F 60% 30.03 in 10.0 mi South 5.8 mph - N/A   Clear
2:15 AM 78.1 °F - 64.4 °F 63% 30.03 in 10.0 mi South 5.8 mph - N/A   Clear
2:35 AM 77.5 °F - 65.3 °F 66% 30.03 in 10.0 mi South 4.6 mph - N/A   Clear
2:55 AM 76.8 °F - 66.2 °F 70% 30.02 in 10.0 mi South 3.5 mph - N/A   Clear
3:15 AM 76.1 °F - 66.2 °F 71% 30.02 in 10.0 mi South 3.5 mph - N/A   Clear
3:35 AM 75.7 °F - 66.4 °F 73% 30.03 in 10.0 mi South 6.9 mph - N/A   Clear
3:55 AM 75.6 °F - 66.6 °F 74% 30.02 in 10.0 mi South 6.9 mph - N/A   Clear
4:15 AM 75.4 °F - 66.7 °F 74% 30.03 in 10.0 mi SSW 5.8 mph - N/A   Clear
4:35 AM 74.8 °F - 66.7 °F 76% 30.03 in 10.0 mi South 6.9 mph - N/A   Clear
4:55 AM 74.7 °F - 66.7 °F 76% 30.02 in 10.0 mi SSW 5.8 mph - N/A   Clear
5:15 AM 74.5 °F - 66.7 °F 77% 30.02 in 10.0 mi SW 3.5 mph - N/A   Clear
5:35 AM 74.1 °F - 66.4 °F 77% 30.04 in 10.0 mi SSW 3.5 mph - N/A   Clear
5:55 AM 73.6 °F - 66.4 °F 78% 30.04 in 10.0 mi Calm Calm - N/A   Clear
6:15 AM 73.6 °F - 66.4 °F 78% 30.04 in 10.0 mi South 6.9 mph - N/A   Clear
6:35 AM 73.4 °F - 66.6 °F 79% 30.04 in 10.0 mi South 6.9 mph - N/A   Clear
6:55 AM 73.0 °F - 67.1 °F 82% 30.04 in 10.0 mi SSW 8.1 mph - N/A   Clear
7:15 AM 72.7 °F - 67.5 °F 84% 30.04 in 10.0 mi SSW 5.8 mph - N/A   Clear
7:35 AM 73.4 °F - 67.6 °F 82% 30.04 in 10.0 mi SSW 5.8 mph - N/A   Clear
7:55 AM 74.3 °F - 68.0 °F 81% 30.04 in 10.0 mi South 8.1 mph - N/A   Clear
8:15 AM 75.2 °F - 68.0 °F 78% 30.04 in 10.0 mi SSW 10.4 mph - N/A   Clear
8:35 AM 76.3 °F - 68.0 °F 75% 30.04 in 10.0 mi SSW 8.1 mph 16.1 mph N/A   Clear
8:55 AM 77.7 °F - 66.2 °F 68% 30.04 in 10.0 mi SSW 10.4 mph - N/A   Clear
9:15 AM 79.2 °F - 65.8 °F 64% 30.04 in 10.0 mi SSW 10.4 mph - N/A   Clear
9:35 AM 80.2 °F 82.0 °F 64.6 °F 59% 30.05 in 10.0 mi SSW 12.7 mph 17.3 mph N/A   Clear
9:55 AM 81.5 °F 83.1 °F 64.4 °F 56% 30.05 in 10.0 mi SSW 10.4 mph 19.6 mph N/A   Clear
10:15 AM 82.8 °F 84.2 °F 64.2 °F 53% 30.05 in 10.0 mi South 11.5 mph - N/A   Clear
10:35 AM 83.1 °F 84.4 °F 63.9 °F 52% 30.06 in 10.0 mi South 10.4 mph - N/A   Clear
10:55 AM 84.9 °F 86.1 °F 63.7 °F 49% 30.06 in 10.0 mi South 11.5 mph 16.1 mph N/A   Clear
11:15 AM 85.1 °F 86.6 °F 64.8 °F 50% 30.06 in 10.0 mi SSW 11.5 mph - N/A   Clear
11:35 AM 87.4 °F 88.2 °F 63.1 °F 44% 30.06 in 10.0 mi SSW 11.5 mph 17.3 mph N/A   Clear
11:55 AM 87.4 °F 88.5 °F 63.5 °F 45% 30.06 in 10.0 mi SSW 9.2 mph - N/A   Clear
12:15 PM 88.7 °F 89.4 °F 62.6 °F 42% 30.06 in 10.0 mi SSE 8.1 mph - N/A   Clear
12:35 PM 89.1 °F 89.3 °F 61.5 °F 40% 30.06 in 10.0 mi SSW 9.2 mph - N/A   Clear
12:55 PM 91.0 °F 90.9 °F 60.3 °F 36% 30.05 in 10.0 mi SSE 6.9 mph 19.6 mph N/A   Clear
1:15 PM 91.0 °F 90.2 °F 59.4 °F 34% 30.04 in 10.0 mi SW 6.9 mph - N/A   Clear
1:35 PM 93.2 °F 92.9 °F 59.7 °F 33% 30.04 in 10.0 mi South 8.1 mph - N/A   Clear
1:55 PM 94.1 °F 92.8 °F 57.6 °F 29% 30.03 in 10.0 mi SSE 8.1 mph - N/A   Clear
2:15 PM 95.2 °F 93.3 °F 55.6 °F 26% 30.03 in 10.0 mi SE 6.9 mph - N/A   Clear
2:35 PM 94.8 °F 92.8 °F 55.4 °F 26% 30.02 in 10.0 mi SSE 9.2 mph - N/A   Clear
2:55 PM 95.9 °F 94.2 °F 55.9 °F 26% 30.01 in 10.0 mi South 12.7 mph 16.1 mph N/A   Clear
3:15 PM 95.9 °F 94.2 °F 55.8 °F 26% 30.00 in 10.0 mi SSE 10.4 mph - N/A   Clear
3:35 PM 96.8 °F 95.1 °F 55.4 °F 25% 30.00 in 10.0 mi South 10.4 mph 17.3 mph N/A   Clear
3:55 PM 97.5 °F 95.7 °F 54.7 °F 24% 29.99 in 10.0 mi South 10.4 mph 16.1 mph N/A   Clear
4:15 PM 97.0 °F 95.0 °F 54.1 °F 24% 29.99 in 10.0 mi South 11.5 mph 17.3 mph N/A   Clear
4:35 PM 97.0 °F 94.6 °F 53.6 °F 23% 29.99 in 10.0 mi South 11.5 mph 17.3 mph N/A   Clear
4:55 PM 97.2 °F - 52.9 °F 22% 29.99 in 10.0 mi SE 9.2 mph 17.3 mph N/A   Clear
5:15 PM 96.4 °F 94.3 °F 53.6 °F 24% 29.98 in 10.0 mi SSE 10.4 mph 16.1 mph N/A   Clear
5:35 PM 96.6 °F 94.2 °F 53.2 °F 23% 29.98 in 10.0 mi SSE 9.2 mph - N/A   Clear
5:55 PM 96.1 °F 94.1 °F 54.7 °F 25% 29.98 in 10.0 mi SE 8.1 mph - N/A   Clear
6:15 PM 95.9 °F 93.6 °F 54.0 °F 24% 29.98 in 10.0 mi SSE 9.2 mph - N/A   Clear
6:35 PM 95.4 °F 93.5 °F 55.4 °F 26% 29.98 in 10.0 mi SSE 9.2 mph - N/A   Clear
6:55 PM 94.8 °F 93.1 °F 55.8 °F 27% 29.98 in 10.0 mi SSE 9.2 mph - N/A   Clear
7:15 PM 94.1 °F 92.8 °F 56.8 °F 29% 29.98 in 10.0 mi SSE 10.4 mph - N/A   Clear
7:35 PM 93.4 °F 92.2 °F 57.4 °F 30% 29.99 in 10.0 mi SSE 10.4 mph - N/A   Clear
7:55 PM 92.3 °F 91.3 °F 58.3 °F 32% 29.99 in 10.0 mi South 10.4 mph 16.1 mph N/A   Clear
8:15 PM 91.4 °F 90.7 °F 59.2 °F 34% 29.99 in 10.0 mi SSE 6.9 mph - N/A   Clear
8:35 PM 90.3 °F 89.6 °F 59.2 °F 35% 30.00 in 10.0 mi SSE 5.8 mph - N/A   Clear
8:55 PM 89.2 °F 88.4 °F 59.2 °F 36% 30.00 in 10.0 mi SSE 4.6 mph - N/A   Clear
9:15 PM 88.0 °F 87.6 °F 59.9 °F 39% 30.01 in 10.0 mi Calm Calm - N/A   Clear
9:35 PM 86.9 °F 86.5 °F 60.1 °F 40% 30.01 in 10.0 mi Calm Calm - N/A   Clear
9:55 PM 85.8 °F 85.7 °F 60.4 °F 42% 30.02 in 10.0 mi Calm Calm - N/A   Clear
10:15 PM 85.1 °F 85.2 °F 60.8 °F 44% 30.02 in 10.0 mi Calm Calm - N/A   Clear
10:35 PM 84.0 °F 84.4 °F 61.2 °F 46% 30.03 in 10.0 mi Calm Calm - N/A   Clear
10:55 PM 84.2 °F 84.8 °F 62.1 °F 47% 30.04 in 10.0 mi SE 4.6 mph - N/A   Clear
11:15 PM 84.7 °F 86.8 °F 66.0 °F 53% 30.05 in 10.0 mi SSE 10.4 mph 16.1 mph N/A   Clear
11:35 PM 84.2 °F 87.1 °F 67.5 °F 57% 30.06 in 10.0 mi SSE 10.4 mph 17.3 mph N/A   Clear
11:55 PM 83.3 °F 86.4 °F 68.2 °F 60% 30.06 in 10.0 mi SSE 9.2 mph 16.1 mph N/A   Clear